Hourly Weather Hostynne

Today, 22 April, Thursday

Time Temperature Precipitation Wind Pressure Humidity
00:00 +7°C° 0 mm 3 mps 735 mmHg 76%
01:00 +7°C° 0 mm 3 mps 735 mmHg 78%
02:00 +5°C° 0 mm 3 mps 736 mmHg 79%
03:00 +5°C° 0 mm 3 mps 736 mmHg 80%
04:00 +5°C° 0 mm 3 mps 736 mmHg 81%
05:00 +5°C° 0 mm 3 mps 736 mmHg 82%
06:00 +7°C° 0 mm 3 mps 736 mmHg 76%
07:00 +8°C° 0 mm 4 mps 736 mmHg 71%
08:00 +11°C° 0 mm 4 mps 736 mmHg 65%
09:00 +12°C° 0 mm 4 mps 736 mmHg 59%
10:00 +13°C° 0 mm 5 mps 737 mmHg 54%
11:00 +15°C° 0 mm 5 mps 737 mmHg 48%
12:00 +15°C° 0 mm 5 mps 736 mmHg 47%
13:00 +16°C° 0 mm 5 mps 736 mmHg 45%
14:00 +16°C° 0 mm 5 mps 736 mmHg 44%
15:00 +16°C° 0 mm 5 mps 736 mmHg 46%
16:00 +16°C° 0 mm 5 mps 735 mmHg 48%
17:00 +15°C° 0 mm 4 mps 735 mmHg 50%
18:00 +13°C° 0.1 mm 4 mps 735 mmHg 59%
19:00 +12°C° 0.1 mm 4 mps 735 mmHg 68%
20:00 +10°C° 0.1 mm 4 mps 735 mmHg 77%
21:00 +9°C° 0.2 mm 3 mps 735 mmHg 79%
22:00 +9°C° 0.2 mm 3 mps 735 mmHg 81%
23:00 +9°C° 0.2 mm 2 mps 735 mmHg 83%

Tomorrow, 23 April, Friday

Time Temperature Precipitation Wind Pressure Humidity
00:00 +8°C° 0 mm 3 mps 735 mmHg 86%
01:00 +7°C° 0 mm 3 mps 735 mmHg 89%
02:00 +5°C° 0 mm 4 mps 736 mmHg 92%
03:00 +5°C° 0.1 mm 4 mps 736 mmHg 90%
04:00 +4°C° 0.1 mm 4 mps 736 mmHg 88%
05:00 +4°C° 0.1 mm 4 mps 736 mmHg 87%
06:00 +4°C° 0.3 mm 3 mps 737 mmHg 83%
07:00 +4°C° 0.3 mm 3 mps 737 mmHg 80%
08:00 +5°C° 0.3 mm 2 mps 737 mmHg 76%
09:00 +5°C° 0.1 mm 3 mps 737 mmHg 70%
10:00 +7°C° 0.1 mm 3 mps 738 mmHg 64%
11:00 +8°C° 0.1 mm 3 mps 738 mmHg 58%
12:00 +8°C° 0 mm 3 mps 737 mmHg 54%
13:00 +9°C° 0 mm 3 mps 737 mmHg 51%
14:00 +9°C° 0 mm 3 mps 737 mmHg 48%
15:00 +8°C° 0.1 mm 4 mps 737 mmHg 49%
16:00 +8°C° 0.1 mm 4 mps 737 mmHg 51%
17:00 +8°C° 0.1 mm 4 mps 737 mmHg 52%
18:00 +7°C° 0.1 mm 4 mps 737 mmHg 60%
19:00 +5°C° 0.1 mm 4 mps 737 mmHg 68%
20:00 +4°C° 0.1 mm 3 mps 738 mmHg 75%
21:00 +3°C° 0 mm 3 mps 738 mmHg 77%
22:00 +3°C° 0 mm 3 mps 738 mmHg 78%
23:00 +2°C° 0 mm 3 mps 738 mmHg 79%

Day after tomorrow, 24 April, Saturday

Time Temperature Precipitation Wind Pressure Humidity
00:00 +2°C° 0 mm 3 mps 738 mmHg 79%
01:00 +1°C° 0 mm 3 mps 738 mmHg 79%
02:00 +1°C° 0 mm 3 mps 738 mmHg 78%
03:00 +1°C° 0 mm 3 mps 738 mmHg 80%
04:00 0°C° 0 mm 4 mps 737 mmHg 83%
05:00 0°C° 0 mm 4 mps 737 mmHg 85%
06:00 0°C° 0 mm 5 mps 738 mmHg 79%
07:00 +1°C° 0 mm 5 mps 738 mmHg 74%
08:00 +1°C° 0 mm 5 mps 739 mmHg 69%
09:00 +2°C° 0 mm 6 mps 739 mmHg 59%
10:00 +4°C° 0 mm 6 mps 739 mmHg 49%
11:00 +5°C° 0 mm 7 mps 739 mmHg 39%
12:00 +5°C° 0 mm 7 mps 739 mmHg 38%
13:00 +6°C° 0 mm 7 mps 739 mmHg 38%
14:00 +6°C° 0 mm 7 mps 739 mmHg 37%
15:00 +7°C° 0 mm 6 mps 739 mmHg 40%
16:00 +5°C° 0 mm 6 mps 740 mmHg 44%
17:00 +5°C° 0 mm 6 mps 740 mmHg 48%
18:00 +5°C° 0 mm 4 mps 740 mmHg 54%
19:00 +4°C° 0 mm 3 mps 740 mmHg 60%
20:00 +3°C° 0 mm 2 mps 740 mmHg 65%
21:00 +3°C° 0 mm 2 mps 740 mmHg 67%
22:00 +2°C° 0 mm 2 mps 740 mmHg 68%
23:00 +2°C° 0 mm 2 mps 740 mmHg 69%

25 April, Sunday

Time Temperature Precipitation Wind Pressure Humidity
00:00 +2°C° 0 mm 2 mps 740 mmHg 70%
01:00 +1°C° 0 mm 3 mps 739 mmHg 70%
02:00 0°C° 0 mm 3 mps 739 mmHg 71%
03:00 0°C° 0 mm 3 mps 739 mmHg 71%
04:00 0°C° 0 mm 3 mps 739 mmHg 71%
05:00 0°C° 0 mm 3 mps 738 mmHg 72%
06:00 +2°C° 0 mm 3 mps 738 mmHg 66%
07:00 +4°C° 0 mm 4 mps 738 mmHg 61%
08:00 +6°C° 0 mm 4 mps 738 mmHg 55%
09:00 +7°C° 0 mm 5 mps 738 mmHg 57%
10:00 +7°C° 0 mm 5 mps 738 mmHg 59%
11:00 +8°C° 0 mm 6 mps 737 mmHg 60%
12:00 +8°C° 0.3 mm 5 mps 737 mmHg 65%
13:00 +7°C° 0.3 mm 4 mps 737 mmHg 69%
14:00 +7°C° 0.3 mm 4 mps 737 mmHg 73%
15:00 +7°C° 0.1 mm 4 mps 737 mmHg 70%
16:00 +7°C° 0.1 mm 4 mps 737 mmHg 67%
17:00 +8°C° 0.1 mm 5 mps 737 mmHg 64%
18:00 +6°C° 0 mm 4 mps 737 mmHg 68%
19:00 +5°C° 0 mm 3 mps 737 mmHg 72%
20:00 +3°C° 0 mm 3 mps 737 mmHg 75%
21:00 +4°C° 0 mm 2 mps 737 mmHg 74%
22:00 +3°C° 0 mm 2 mps 737 mmHg 74%
23:00 +3°C° 0 mm 2 mps 737 mmHg 73%

26 April, Monday

Time Temperature Precipitation Wind Pressure Humidity
00:00 +3°C° 0 mm 2 mps 737 mmHg 73%
01:00 +2°C° 0 mm 2 mps 737 mmHg 73%
02:00 +2°C° 0 mm 2 mps 737 mmHg 73%
03:00 +2°C° 0 mm 2 mps 737 mmHg 76%
04:00 +1°C° 0 mm 2 mps 737 mmHg 80%
05:00 -1°C° 0 mm 3 mps 737 mmHg 83%
06:00 +1°C° 0 mm 3 mps 737 mmHg 75%
07:00 +1°C° 0 mm 4 mps 737 mmHg 67%
08:00 +3°C° 0 mm 5 mps 737 mmHg 58%
09:00 +4°C° 0 mm 6 mps 737 mmHg 52%
10:00 +5°C° 0 mm 6 mps 737 mmHg 46%
11:00 +6°C° 0 mm 7 mps 737 mmHg 40%
12:00 +6°C° 0 mm 7 mps 737 mmHg 40%
13:00 +6°C° 0 mm 7 mps 736 mmHg 40%
14:00 +8°C° 0 mm 7 mps 736 mmHg 39%
15:00 +7°C° 0 mm 6 mps 736 mmHg 41%
16:00 +7°C° 0 mm 6 mps 736 mmHg 43%
17:00 +7°C° 0 mm 5 mps 736 mmHg 45%
18:00 +5°C° 0 mm 4 mps 736 mmHg 49%
19:00 +4°C° 0 mm 3 mps 736 mmHg 54%
20:00 +5°C° 0 mm 1 mps 736 mmHg 58%
21:00 +4°C° 0 mm 1 mps 736 mmHg 58%
22:00 +4°C° 0 mm 1 mps 736 mmHg 59%
23:00 +3°C° 0 mm 1 mps 736 mmHg 60%

27 April, Tuesday

Time Temperature Precipitation Wind Pressure Humidity
00:00 +3°C° 0 mm 1 mps 736 mmHg 61%
01:00 +2°C° 0 mm 2 mps 736 mmHg 62%
02:00 +2°C° 0 mm 2 mps 736 mmHg 63%
03:00 +1°C° 0 mm 2 mps 736 mmHg 64%
04:00 +1°C° 0 mm 2 mps 736 mmHg 65%
05:00 +2°C° 0 mm 1 mps 736 mmHg 67%
06:00 +4°C° 0 mm 1 mps 736 mmHg 62%
07:00 +6°C° 0 mm 1 mps 736 mmHg 57%
08:00 +8°C° 0 mm 1 mps 736 mmHg 53%
09:00 +8°C° 0 mm 2 mps 736 mmHg 49%
10:00 +9°C° 0 mm 2 mps 736 mmHg 46%
11:00 +12°C° 0 mm 2 mps 736 mmHg 43%
12:00 +12°C° 0 mm 2 mps 736 mmHg 44%
13:00 +12°C° 0 mm 3 mps 735 mmHg 45%
14:00 +12°C° 0 mm 4 mps 735 mmHg 46%
15:00 +12°C° 0 mm 4 mps 735 mmHg 50%
16:00 +10°C° 0 mm 5 mps 734 mmHg 55%
17:00 +10°C° 0 mm 5 mps 734 mmHg 60%
18:00 +8°C° 0 mm 5 mps 734 mmHg 68%
19:00 +7°C° 0 mm 4 mps 734 mmHg 76%
20:00 +6°C° 0 mm 4 mps 734 mmHg 85%
21:00 +6°C° 0.1 mm 4 mps 733 mmHg 86%
22:00 +6°C° 0.1 mm 4 mps 733 mmHg 88%
23:00 +6°C° 0.1 mm 5 mps 733 mmHg 90%
Show more

We Need Your Consent

Meteoprog and our Service Providers may store and access personal data such as cookies, device identifiers or other similar technologies on your device and process such data to personalise content and ads, as well as provide social media features and to analyse the traffic.

  • Store and/or access information on your device

    Cookies, device identifiers or other information can be stored or accessed on your device for the purposes indicated above.

  • Personalised ads and content, ad and content measurement, audience insights, and products development

    Ads and content can be personalised based on a profile. More data can be added to better personalise ads and content. Ad and content performance can be measured. Insights about the audience who saw the ads and content can be derived. Such data can be used to develop or improve user’s experience, systems and software.

By clicking ‘I Agree’ you will allow the use of indicated cookies, device identifiers, web beacons or other similar technologies. Your settings can be changed in the browser on your device.

For certain purposes, legitimate interests may be relied on, rather than consent. You can read more about this in our Privacy and Cookie Policy.